[[{"header":{"parameterUnit":"m.s-1","parameterCategory":1,"la1":30.2991,"la2":30.254,"lo1":-89.0895,"lo2":-89.0444,"dy":0.0017,"dx":0.0017,"nx":28,"ny":28,"refTime":"2025-07-07T03:00:00:Z","depth":0,"parameterNumber":2,"parameterNumberName":"U-component_of_WINDS"},"data":[0,0,0,0,0,0,0,0,0,0,0,0,0,0,0,0,0,0,0,0,0,0,0,0,0,0,0,0,0,0,0,0,0,0,0,0,0,0,0,0,0,0,0,0,0,0,0,0,0,0,0,0,0,0,0,0,0,0,0.884,0.8842,0,0.9036,0.9039,0.9041,0.9122,0.9121,0.9121,0.912,0.9324,0.933,0.9336,0,0,0,0,0,0,0,0,0,0,0,0,0,0.8536,0.8541,0.884,0.8842,0.8845,0.9036,0.9039,0.9042,0.9122,0.9121,0.9121,0.912,0.9322,0.9329,0.9336,0,0,0,0,0,0,0,0,0,0,0,0,0,0.8694,0.8543,0.8839,0.8908,0.8916,0.9036,0.9039,0.9042,0.9122,0.9121,0.912,0.912,0.932,0.9329,0.9337,0.9404,0,0,0.9364,0.9368,0,0,0,0,0,0,0,0,0.8685,0.8705,0.8895,0.8903,0.8912,0.9054,0.9007,0.9164,0.9122,0.9044,0.912,0.9119,0.9235,0.9251,0.9289,0.9414,0.9423,0.9365,0.937,0.9374,0.9376,0,0,0,0,0,0,0,0.8674,0.8697,0.8918,0.8898,0.8908,0.8929,0.8951,0.9037,0.9141,0.905,0.9057,0.9079,0.924,0.928,0.9294,0.9426,0.9365,0.9372,0.9378,0.9381,0.9616,0.9617,0,0,0,0,0,0,0.8651,0.8687,0.8911,0.8924,0.8795,0.8935,0.896,0.9009,0.914,0.9159,0.9079,0.9082,0.9266,0.9284,0.9302,0.9389,0.9374,0.9382,0.9387,0.9615,0.9616,0.9617,0,0,0,0,0,0,0.8644,0.867,0.8904,0.8807,0.8838,0.8941,0.8996,0.9013,0.9054,0.9162,0.9181,0.9102,0.9266,0.929,0.9378,0.9398,0.9386,0.9394,0.9614,0.9615,0.9617,0.9564,0,0,0,0,0,0,0.8635,0.8667,0.8693,0.8807,0.8843,0.8976,0.8997,0.9018,0.9069,0.9074,0.9188,0.9206,0.9267,0.9365,0.9387,0.9409,0.9401,0.9613,0.9615,0.9616,0.9565,0.9564,0.9563,0,0,0,0,0,0.8624,0.8671,0.8694,0.8721,0.8878,0.8976,0.8997,0.9066,0.907,0.9097,0.9166,0.9202,0.9392,0.9373,0.9399,0.9424,0.9612,0.9614,0.9616,0.9565,0.9564,0.9563,0,0,0,0,0,0,0.8558,0.8688,0.8714,0.88,0.8876,0.899,0.9026,0.9063,0.914,0.9142,0.9225,0.925,0.9332,0.9387,0.9364,0.9496,0.9505,0.9512,0.9457,0.9457,0.9456,0.9441,0.9408,0,0,0,0,0,0.8553,0.8622,0.8732,0.8796,0.8833,0.8923,0.8969,0.9015,0.9098,0.9131,0.9207,0.9287,0.9364,0.9414,0.9491,0.9573,0.9599,0.9603,0.9602,0.9601,0.9607,0.9654,0.9658,0.9625,0.9625,0.9625,0,0,0.8544,0.8624,0.8662,0.8785,0.885,0.892,0.895,0.9022,0.9075,0.9143,0.9231,0.9289,0.9383,0.9469,0.951,0.9518,0.9622,0.9604,0.9602,0.9609,0.9657,0.966,0.9663,0.9626,0.9626,0.9626,0,0,0.8564,0.863,0.8692,0.8756,0.8853,0.8913,0.8927,0.9036,0.9076,0.9166,0.9218,0.9282,0.9414,0.9479,0.953,0.9574,0.961,0.9597,0.9592,0.9638,0.964,0.9643,0.9659,0.9663,0.9602,0.9602,0.9602,0,0.854,0.8647,0.8719,0.8789,0.8841,0.8904,0.8967,0.9027,0.9144,0.918,0.9186,0.9353,0.9421,0.9523,0.9533,0.9572,0.9592,0.9584,0.9634,0.9637,0.9641,0.9657,0.9663,0.9599,0.96,0.96,0.96,0,0.8614,0.8687,0.8725,0.8836,0.8893,0.8959,0.9042,0.9091,0.9132,0.9191,0.9281,0.9365,0.9461,0.9488,0.953,0.9596,0.9598,0.9617,0.9628,0.9641,0.9657,0.9664,0.9596,0.9597,0.9598,0.9598,0,0,0.8597,0.8747,0.876,0.8811,0.8923,0.8982,0.9051,0.9143,0.9184,0.9263,0.9324,0.9433,0.9453,0.951,0.9559,0.9599,0.9628,0.9615,0.9618,0.9614,0.9707,0.9691,0.9697,0.9653,0.9654,0.9656,0.9699,0,0.8632,0.8757,0.8824,0.8921,0.899,0.9051,0.9111,0.9187,0.9244,0.9311,0.9374,0.945,0.947,0.9505,0.9547,0.9616,0.9648,0.9614,0.971,0.9713,0.9685,0.9706,0.9689,0.9726,0.9706,0.9707,0.9708,0,0.8689,0.8766,0.887,0.8975,0.9006,0.9059,0.9149,0.9212,0.9299,0.9338,0.9401,0.945,0.9526,0.953,0.9635,0.961,0.9654,0.9694,0.9697,0.9709,0.9711,0.9718,0.974,0.9745,0.9719,0.9718,0.9717,0,0.8666,0.8797,0.8876,0.8918,0.9042,0.9077,0.9131,0.9217,0.9269,0.9348,0.9382,0.9469,0.9516,0.9583,0.9654,0.965,0.9753,0.9763,0.9787,0.9785,0.9806,0.9804,0.9835,0.9834,0.9834,0.9834,0.9834,0,0.8698,0.8759,0.8867,0.8916,0.8987,0.9063,0.9131,0.9189,0.9266,0.9327,0.9386,0.9442,0.9532,0.96,0.9657,0.9736,0.9757,0.9791,0.9805,0.9785,0.9781,0.9815,0.9815,0.9835,0.9835,0.9835,0.9834,0,0.8684,0.8759,0.885,0.8959,0.8988,0.9035,0.913,0.9179,0.9239,0.9316,0.9339,0.9432,0.9516,0.9593,0.9704,0.9742,0.9821,0.984,0.9792,0.9799,0.982,0.9817,0.9874,0.9886,0.9876,0.9876,0.9876,0,0.8699,0.8748,0.8862,0.8907,0.8959,0.9031,0.9084,0.9161,0.9213,0.9316,0.9354,0.9441,0.9515,0.9645,0.9723,0.9809,0.9829,0.9844,0.9843,0.9822,0.983,0.9826,0.9831,0.9842,0.9842,0.9842,0.9842,0,0.8718,0.8753,0.8826,0.8912,0.8973,0.9045,0.9119,0.9152,0.9244,0.93,0.9385,0.9442,0.9555,0.9641,0.9735,0.9791,0.9832,0.9841,0.9851,0.9832,0.9802,0.9819,0.9788,0.984,0.984,0.984,0.984,0.984,0.872,0.8766,0.8854,0.8934,0.8997,0.9064,0.9117,0.9182,0.9255,0.9352,0.9393,0.948,0.9566,0.9696,0.9752,0.9821,0.983,0.9845,0.9848,0.9851,0.9847,0.9791,0.9838,0.9839,0.9839,0.9839,0.9839,0,0.8743,0.8802,0.8874,0.8975,0.9038,0.907,0.9153,0.9204,0.9279,0.9355,0.9427,0.9525,0.9608,0.9693,0.9781,0.982,0.9841,0.9841,0.9839,0.9851,0.9834,0.9816,0.9823,0.9823,0.9823,0.9823,0.9823,0.9823,0.8761,0.8841,0.8886,0.8998,0.9057,0.9142,0.9186,0.9249,0.9311,0.9417,0.9487,0.9541,0.9621,0.9716,0.9794,0.9817,0.9847,0.9842,0.9869,0.9852,0.9853,0.9853,0.9837,0.9847,0.9847,0.9881,0.9882,0.9882]},{"header":{"parameterUnit":"m.s-1","parameterCategory":1,"la1":30.2991,"la2":30.254,"lo1":-89.0895,"lo2":-89.0444,"dy":0.0017,"dx":0.0017,"nx":28,"ny":28,"refTime":"2025-07-07T03:00:00:Z","depth":0,"parameterNumber":3,"parameterNumberName":"V-component_of_WINDS"},"data":[0,0,0,0,0,0,0,0,0,0,0,0,0,0,0,0,0,0,0,0,0,0,0,0,0,0,0,0,0,0,0,0,0,0,0,0,0,0,0,0,0,0,0,0,0,0,0,0,0,0,0,0,0,0,0,0,0,0,4.1631,4.1631,0,4.1629,4.1629,4.1629,4.1624,4.1624,4.1624,4.1624,4.1622,4.1622,4.1622,0,0,0,0,0,0,0,0,0,0,0,0,0,4.1629,4.1629,4.1631,4.1631,4.163,4.1629,4.1629,4.1629,4.1625,4.1624,4.1624,4.1624,4.1622,4.1622,4.1622,0,0,0,0,0,0,0,0,0,0,0,0,0,4.1629,4.1629,4.1631,4.1628,4.1628,4.1629,4.1629,4.1629,4.1625,4.1624,4.1624,4.1624,4.1622,4.1622,4.1622,4.1626,0,0,4.1623,4.1623,0,0,0,0,0,0,0,0,4.1629,4.1629,4.1628,4.1628,4.1628,4.1627,4.1628,4.1628,4.1625,4.1626,4.1624,4.1624,4.1624,4.1624,4.1624,4.1626,4.1626,4.1623,4.1623,4.1623,4.1623,0,0,0,0,0,0,0,4.1629,4.1629,4.163,4.1628,4.1628,4.1627,4.1627,4.1628,4.1626,4.1626,4.1625,4.1625,4.1624,4.1624,4.1624,4.1626,4.1623,4.1623,4.1623,4.1623,4.1631,4.1631,0,0,0,0,0,0,4.1629,4.1629,4.163,4.163,4.1628,4.1627,4.1627,4.1627,4.1626,4.1625,4.1625,4.1625,4.1624,4.1624,4.1624,4.1628,4.1623,4.1623,4.1623,4.1631,4.1631,4.1631,0,0,0,0,0,0,4.1629,4.1629,4.163,4.1629,4.1629,4.1627,4.1628,4.1627,4.1628,4.1626,4.1625,4.1626,4.1624,4.1624,4.1626,4.1628,4.1623,4.1623,4.1631,4.1631,4.1631,4.1636,0,0,0,0,0,0,4.1629,4.1629,4.1631,4.1629,4.1629,4.1632,4.1628,4.1628,4.1628,4.1627,4.1626,4.1626,4.1624,4.1626,4.1626,4.1628,4.1623,4.163,4.1631,4.1631,4.1636,4.1637,4.1637,0,0,0,0,0,4.1629,4.1632,4.1631,4.1631,4.1631,4.1632,4.1632,4.163,4.1628,4.1629,4.1628,4.1626,4.1628,4.1626,4.1626,4.1628,4.163,4.1631,4.1631,4.1636,4.1637,4.1637,0,0,0,0,0,0,4.1633,4.1632,4.163,4.1633,4.1633,4.1631,4.1633,4.1631,4.1631,4.1631,4.1628,4.1628,4.163,4.1629,4.1627,4.1632,4.1629,4.1629,4.1632,4.1633,4.1634,4.1634,4.1623,0,0,0,0,0,4.1635,4.1636,4.1634,4.1637,4.1637,4.1635,4.1635,4.1634,4.1633,4.1633,4.1632,4.1632,4.1632,4.1633,4.1633,4.1636,4.1636,4.1638,4.1638,4.1639,4.1639,4.1641,4.1642,4.1633,4.1633,4.1633,0,0,4.1637,4.1636,4.1637,4.1638,4.1637,4.1638,4.1635,4.1636,4.1637,4.1633,4.1635,4.1634,4.1634,4.1636,4.1637,4.1636,4.1642,4.1639,4.164,4.164,4.1641,4.1642,4.1643,4.1633,4.1633,4.1633,0,0,4.1642,4.1642,4.1644,4.1644,4.1644,4.1642,4.1643,4.1642,4.1641,4.1643,4.1641,4.1641,4.1642,4.1642,4.1642,4.1648,4.1646,4.1648,4.1652,4.1653,4.1654,4.1655,4.1657,4.1657,4.1648,4.1649,4.1649,0,4.1646,4.1647,4.1645,4.1647,4.1647,4.1644,4.1646,4.1646,4.1646,4.1646,4.1645,4.1646,4.1645,4.1648,4.1649,4.1649,4.165,4.1648,4.1654,4.1655,4.1655,4.1657,4.1658,4.1649,4.1649,4.1649,4.1649,0,4.1651,4.1653,4.1654,4.1654,4.1655,4.1657,4.1655,4.1656,4.1654,4.1653,4.1655,4.1655,4.1655,4.1655,4.1654,4.1658,4.1657,4.1655,4.1651,4.1657,4.1658,4.1659,4.1649,4.1649,4.1649,4.1649,0,0,4.1659,4.1658,4.1659,4.1659,4.1658,4.1659,4.1661,4.1662,4.1662,4.1662,4.1664,4.1665,4.1663,4.1663,4.1661,4.1663,4.1668,4.1661,4.1661,4.1662,4.1672,4.1673,4.1674,4.1666,4.1666,4.1666,4.1672,0,4.1664,4.1667,4.1665,4.1668,4.167,4.1667,4.1669,4.1669,4.1668,4.1669,4.1668,4.1669,4.1666,4.1666,4.1668,4.1667,4.1669,4.1666,4.1667,4.1667,4.1667,4.1675,4.1676,4.1681,4.1672,4.1672,4.1672,0,4.167,4.167,4.1674,4.1673,4.1674,4.1675,4.1675,4.1676,4.1676,4.1676,4.1676,4.1674,4.1676,4.1673,4.1675,4.1673,4.1674,4.1673,4.1673,4.1673,4.167,4.1674,4.1683,4.1683,4.1674,4.1673,4.1673,0,4.1675,4.1676,4.1678,4.1679,4.1678,4.1679,4.1679,4.1679,4.1679,4.168,4.168,4.1681,4.1681,4.1681,4.168,4.1678,4.1682,4.1679,4.1682,4.1682,4.1683,4.1682,4.1691,4.1683,4.1683,4.1683,4.1683,0,4.168,4.1682,4.1681,4.1682,4.1684,4.1683,4.1685,4.1685,4.1685,4.1686,4.1684,4.1685,4.1683,4.1684,4.1683,4.1685,4.1685,4.1685,4.1684,4.1685,4.1685,4.1685,4.1684,4.1683,4.1683,4.1683,4.1683,0,4.1686,4.1685,4.1687,4.1687,4.1687,4.1689,4.1688,4.1689,4.1689,4.169,4.1691,4.1689,4.169,4.1689,4.169,4.1689,4.1692,4.1691,4.1692,4.1692,4.1694,4.1694,4.1702,4.1703,4.1696,4.1696,4.1696,0,4.1689,4.1691,4.1691,4.1692,4.1692,4.1693,4.1693,4.1692,4.1693,4.1693,4.1694,4.1695,4.1696,4.1698,4.1697,4.1698,4.1697,4.17,4.1697,4.1697,4.1696,4.1696,4.1696,4.17,4.17,4.17,4.17,0,4.1696,4.1695,4.1696,4.1697,4.1698,4.1698,4.1699,4.17,4.1698,4.1699,4.17,4.1701,4.1702,4.1703,4.1703,4.1703,4.1701,4.1701,4.1702,4.1702,4.1702,4.1702,4.1693,4.1701,4.1701,4.1701,4.1701,4.1701,4.17,4.1702,4.1702,4.1703,4.1703,4.1704,4.1705,4.1705,4.1706,4.1706,4.1706,4.1707,4.1707,4.1708,4.1708,4.1709,4.1708,4.1708,4.1709,4.1709,4.1709,4.1703,4.1709,4.1709,4.1709,4.1709,4.1709,0,4.1706,4.1707,4.1708,4.1708,4.1709,4.1708,4.1708,4.1709,4.1711,4.1711,4.1712,4.1713,4.1714,4.1714,4.1715,4.1715,4.1715,4.1716,4.1716,4.1716,4.171,4.171,4.1716,4.1716,4.1716,4.1716,4.1716,4.1716,4.171,4.1712,4.1712,4.1714,4.1714,4.1716,4.1716,4.1716,4.1717,4.1718,4.1719,4.1719,4.1719,4.172,4.1721,4.1721,4.1721,4.1722,4.1722,4.1717,4.1716,4.1715,4.1715,4.1722,4.1722,4.1727,4.1727,4.1727]}]]